TimeCST,TemperatureF,Dew PointF,Humidity,Sea Level PressureIn,VisibilityMPH,Wind Direction,Wind SpeedMPH,Gust SpeedMPH,PrecipitationIn,Events,Conditions,WindDirDegrees,DateUTC
12:15 AM,8.6,3.2,79,30.12,10.0,SSE,10.4,-,N/A,,Overcast,150,2013-01-25 06:15:00
12:36 AM,8.6,3.2,79,30.11,10.0,SSE,6.9,-,N/A,,Overcast,150,2013-01-25 06:36:00
12:55 AM,10.4,3.2,73,30.08,10.0,SSE,9.2,-,N/A,,Overcast,150,2013-01-25 06:55:00
1:15 AM,10.4,3.2,73,30.08,10.0,SSE,10.4,-,N/A,,Overcast,160,2013-01-25 07:15:00
1:36 AM,10.4,5.0,79,30.06,10.0,SSE,8.1,-,N/A,,Overcast,150,2013-01-25 07:36:00
1:56 AM,10.4,5.0,79,30.05,10.0,SSE,6.9,-,N/A,,Overcast,160,2013-01-25 07:56:00
2:16 AM,10.4,5.0,79,30.04,10.0,SSE,8.1,-,N/A,,Overcast,160,2013-01-25 08:16:00
2:35 AM,10.4,6.8,85,30.02,10.0,SSE,8.1,-,N/A,,Overcast,160,2013-01-25 08:35:00
2:56 AM,12.2,6.8,79,30.01,10.0,South,8.1,-,N/A,,Overcast,170,2013-01-25 08:56:00
3:15 AM,12.2,6.8,79,30.00,10.0,South,9.2,-,N/A,,Overcast,180,2013-01-25 09:15:00
3:36 AM,12.2,8.6,85,29.98,10.0,South,9.2,-,N/A,,Overcast,170,2013-01-25 09:36:00
3:56 AM,12.2,8.6,85,29.96,10.0,South,11.5,-,N/A,,Overcast,170,2013-01-25 09:56:00
4:15 AM,12.2,8.6,85,29.95,10.0,South,9.2,-,N/A,,Overcast,180,2013-01-25 10:15:00
4:36 AM,12.2,8.6,85,29.94,10.0,South,8.1,-,N/A,,Overcast,190,2013-01-25 10:36:00
4:56 AM,14.0,8.6,79,29.93,10.0,South,8.1,-,N/A,,Overcast,190,2013-01-25 10:56:00
5:15 AM,14.0,8.6,79,29.92,10.0,SSW,8.1,-,N/A,,Overcast,200,2013-01-25 11:15:00
5:36 AM,14.0,8.6,79,29.90,10.0,SSW,8.1,-,N/A,Snow,Light Snow,200,2013-01-25 11:36:00
5:56 AM,14.0,8.6,79,29.90,10.0,SSW,8.1,-,N/A,Snow,Light Snow,200,2013-01-25 11:56:00
6:15 AM,15.8,8.6,73,29.89,10.0,SSW,6.9,-,N/A,Snow,Light Snow,210,2013-01-25 12:15:00
6:36 AM,15.8,10.4,79,29.89,10.0,SSW,9.2,-,N/A,Snow,Light Snow,210,2013-01-25 12:36:00
6:56 AM,15.8,10.4,79,29.89,10.0,SW,6.9,-,N/A,Snow,Light Snow,220,2013-01-25 12:56:00
7:36 AM,15.8,10.4,79,29.88,10.0,SW,6.9,-,N/A,Snow,Light Snow,220,2013-01-25 13:36:00
7:55 AM,15.8,10.4,79,29.88,10.0,WSW,8.1,-,N/A,Snow,Light Snow,250,2013-01-25 13:55:00
8:16 AM,15.8,10.4,79,29.88,10.0,WSW,8.1,-,N/A,Snow,Light Snow,250,2013-01-25 14:16:00
8:35 AM,15.8,12.2,86,29.88,3.0,WSW,9.2,17.3,N/A,Snow,Light Snow,250,2013-01-25 14:35:00
8:55 AM,15.8,12.2,86,29.88,7.0,WSW,10.4,17.3,N/A,Snow,Light Snow,250,2013-01-25 14:55:00
9:16 AM,15.8,10.4,79,29.89,4.0,West,9.2,18.4,N/A,Snow,Light Snow,280,2013-01-25 15:16:00
9:35 AM,15.8,8.6,73,29.91,10.0,West,11.5,18.4,N/A,,Overcast,280,2013-01-25 15:35:00
9:56 AM,15.8,8.6,73,29.92,10.0,WNW,16.1,20.7,N/A,,Overcast,290,2013-01-25 15:56:00
10:15 AM,14.0,8.6,79,29.92,4.0,West,13.8,23.0,N/A,Snow,Light Snow,280,2013-01-25 16:15:00
10:36 AM,12.2,8.6,85,29.94,4.0,West,15.0,20.7,N/A,Snow,Light Snow,270,2013-01-25 16:36:00
10:55 AM,12.2,8.6,85,29.95,5.0,West,15.0,24.2,N/A,Snow,Light Snow,270,2013-01-25 16:55:00
11:16 AM,12.2,6.8,79,29.96,4.0,West,15.0,-,N/A,Snow,Light Snow,280,2013-01-25 17:16:00
11:36 AM,12.2,6.8,79,29.96,10.0,WNW,16.1,21.9,N/A,Snow,Light Snow,300,2013-01-25 17:36:00
11:55 AM,12.2,6.8,79,29.97,10.0,WNW,16.1,21.9,N/A,,Mostly Cloudy,290,2013-01-25 17:55:00
12:16 PM,12.2,6.8,79,29.97,10.0,WNW,17.3,23.0,N/A,,Clear,300,2013-01-25 18:16:00
12:35 PM,12.2,6.8,79,29.98,10.0,WNW,15.0,21.9,N/A,,Clear,300,2013-01-25 18:35:00
12:55 PM,12.2,6.8,79,29.99,10.0,WNW,10.4,18.4,N/A,,Clear,290,2013-01-25 18:55:00
1:16 PM,12.2,6.8,79,30.00,10.0,WNW,15.0,21.9,N/A,,Clear,290,2013-01-25 19:16:00
1:35 PM,12.2,6.8,79,30.00,10.0,West,12.7,-,N/A,,Scattered Clouds,280,2013-01-25 19:35:00
1:55 PM,12.2,6.8,79,30.02,10.0,West,10.4,17.3,N/A,,Clear,270,2013-01-25 19:55:00
2:16 PM,12.2,6.8,79,30.02,10.0,West,12.7,18.4,N/A,,Clear,280,2013-01-25 20:16:00
2:35 PM,12.2,6.8,79,30.04,10.0,WNW,11.5,-,N/A,,Clear,290,2013-01-25 20:35:00
2:56 PM,12.2,6.8,79,30.04,10.0,WNW,13.8,20.7,N/A,,Clear,290,2013-01-25 20:56:00
3:16 PM,12.2,6.8,79,30.05,10.0,WNW,11.5,-,N/A,,Clear,290,2013-01-25 21:16:00
3:35 PM,12.2,6.8,79,30.06,10.0,West,10.4,17.3,N/A,,Clear,270,2013-01-25 21:35:00
3:56 PM,12.2,6.8,79,30.07,10.0,West,8.1,17.3,N/A,,Scattered Clouds,270,2013-01-25 21:56:00
3:57 PM,12.2,6.8,79,30.07,10.0,West,10.4,17.3,N/A,,Scattered Clouds,260,2013-01-25 21:57:00
5:09 PM,10.4,5.0,79,30.12,10.0,West,6.9,-,N/A,,Clear,270,2013-01-25 23:09:00
5:12 PM,10.4,3.2,73,30.12,10.0,West,8.1,-,N/A,,Clear,280,2013-01-25 23:12:00
6:00 PM,8.6,3.2,79,30.12,10.0,West,5.8,-,N/A,,Clear,280,2013-01-26 00:00:00
6:01 PM,8.6,3.2,79,30.12,10.0,West,5.8,-,N/A,,Clear,280,2013-01-26 00:01:00
9:10 PM,3.2,-0.4,85,30.21,10.0,NNW,3.5,-,N/A,,Clear,340,2013-01-26 03:10:00
9:15 PM,3.2,-0.4,85,30.21,10.0,NW,3.5,-,N/A,,Clear,320,2013-01-26 03:15:00
9:35 PM,3.2,-0.4,85,30.21,10.0,Calm,Calm,-,N/A,,Clear,0,2013-01-26 03:35:00
9:56 PM,-0.4,-4.0,85,30.22,10.0,WSW,3.5,-,N/A,,Clear,250,2013-01-26 03:56:00
10:15 PM,1.4,-2.2,85,30.23,10.0,Calm,Calm,-,N/A,,Clear,0,2013-01-26 04:15:00
10:36 PM,1.4,-2.2,85,30.24,10.0,Calm,Calm,-,N/A,,Clear,0,2013-01-26 04:36:00
10:56 PM,-0.4,-4.0,85,30.26,10.0,Calm,Calm,-,N/A,,Clear,0,2013-01-26 04:56:00
11:16 PM,1.4,-2.2,85,30.26,10.0,Calm,Calm,-,N/A,,Clear,0,2013-01-26 05:16:00
11:34 PM,-0.4,-4.0,85,30.26,10.0,Calm,Calm,-,N/A,,Clear,0,2013-01-26 05:34:00
11:56 PM,-0.4,-5.8,78,30.28,10.0,West,3.5,-,N/A,,Clear,280,2013-01-26 05:56:00